Regional Weather Roundup
Issued by NWS Green Bay, WI

Home | Current Version | Previous Version | Text Only | Print | Product List | Glossary On
Versions: 1 2 3 4 5 6 7 8 9 10 11 12 13 14 15 16 17 18 19 20 21 22 23 24 25 26 27 28 29 30 31 32 33 34 35 36 37 38 39 40 41 42 43 44 45 46 47 48 49 50
000
ASUS43 KGRB 050759
RWRGRB

NORTH-CENTRAL AND NORTHEAST WISCONSIN REGIONAL WEATHER ROUNDUP
NATIONAL WEATHER SERVICE GREEN BAY WI
300 AM CDT TUE MAY 05 2015

WIZ005-009-010>012-018-019-050900-
NORTH CENTRAL WISCONSIN

CITY           SKY/WX    TMP DP  RH WIND       PRES   REMARKS
IRONWOOD       CLEAR     36  30  80 CALM      30.26R
MANITOWISH WTR NOT AVBL
ARBOR VITAE    NOT AVBL
EAGLE RIVER    NOT AVBL
LAND O LAKES   NOT AVBL
RHINELANDER    CLEAR     43  36  76 CALM      30.29F
PHILLIPS       NOT AVBL
ANTIGO         NOT AVBL
TOMAHAWK       NOT AVBL
MERRILL        NOT AVBL
$$

WIZ013-073-050900-
NORTHEAST WISCONSIN

CITY           SKY/WX    TMP DP  RH WIND       PRES   REMARKS
IRON MOUNTAIN  CLEAR     38  34  85 CALM      30.29R
MARINETTE      MOCLDY    45  34  65 NW3       30.28S
$$

WIZ017-030-035>037-045-050900-
CENTRAL WISCONSIN

CITY           SKY/WX    TMP DP  RH WIND       PRES   REMARKS
MEDFORD        NOT AVBL
WAUSAU         MOCLDY    48  37  65 E6        30.25F
MOSINEE        NOT AVBL
MARSHFIELD     CLOUDY    50  40  68 E10       30.24S
WISC RAPIDS    CLOUDY    52  36  54 E7        30.24F
STEVENS POINT  NOT AVBL
WAUPACA        NOT AVBL
SHAWANO        NOT AVBL
CLINTONVILLE   NOT AVBL
$$

WIZ038-039-048-051-050900-
FOX VALLEY

CITY           SKY/WX    TMP DP  RH WIND       PRES   REMARKS
NWS GREEN BAY  CLOUDY    49  38  65 NE8       30.26S
APPLETON       NOT AVBL
OSHKOSH        CLOUDY    54  34  46 NE8       30.23S
FOND DU LAC    CLOUDY    54  32  43 E10       30.22S
$$

WIZ022-050-052-050900-
EAST CENTRAL WISCONSIN

CITY           SKY/WX    TMP DP  RH WIND       PRES   REMARKS
STURGEON BAY   MOCLDY    46  32  57 NE7       30.30S
MANITOWOC      NOT AVBL
SHEBOYGAN      CLOUDY    47  37  68 NE10      30.24R
$$

LMZ563-521-522-541>543-050900-
LAKESHORE

STATION/POSITION TIME  TEMP    WIND        PRES    VSBY  WAVE
                       AIR SEA DIR/SP/G                  HT/PER
                 (UTC) (F)     (DEG/KT/KT) (MB)    (MI)  (FT/S)
SHEBOYGAN LKSHOR 0700   48      10/ 11/ 14 1024.4R
KEWAUNEE LKSHORE 0700   47      20/  9/ 12 1024.0R
NORTHPORT PIER   0700   45      CALM  /  1 1025.7R
CHAMBERS ISLAND  0700   44     300/  2/  2 1025.7R
MENOMINEE LKSHOR 0700   47      10/  6/  7 1025.9R
$$



USA.gov is the U.S. government's official web portal to all federal, state and local government web resources and services.